| time (UTC) | temp F | wind direction | speed MPH | gust MPH | rain 1hr in | rain 24hr in | rain mn in | humidity % | barometer mb |
| 20260509011227 | 48 | 329 | 0.0 | 2.0 | 0.00 | 0.47 | 0.00 | 93 | 1016.0 |
| 20260509010745 | 49 | 329 | 1.0 | 2.0 | 0.00 | 0.47 | 0.00 | 93 | 1016.0 |
| 20260509010232 | 49 | 329 | 1.0 | 2.0 | 0.00 | 0.47 | 0.00 | 93 | 1016.0 |
| 20260509005751 | 49 | 329 | 1.0 | 2.0 | 0.00 | 0.47 | 0.00 | 93 | 1015.9 |
| 20260509005253 | 49 | 329 | 1.0 | 2.0 | 0.00 | 0.47 | 0.00 | 93 | 1016.0 |
| 20260509004752 | 49 | 329 | 0.0 | 3.0 | 0.00 | 0.47 | 0.00 | 93 | 1016.0 |
| 20260509004225 | 49 | 329 | 1.0 | 3.0 | 0.00 | 0.47 | 0.00 | 93 | 1015.8 |
| 20260509003726 | 49 | 329 | 0.0 | 0.0 | 0.00 | 0.47 | 0.00 | 93 | 1015.9 |
| 20260509003243 | 49 | 329 | 0.0 | 0.0 | 0.00 | 0.47 | 0.00 | 93 | 1015.8 |
| 20260509002723 | 49 | 329 | 0.0 | 0.0 | 0.00 | 0.47 | 0.00 | 93 | 1015.9 |
| 20260509002240 | 49 | 329 | 0.0 | 0.0 | 0.00 | 0.47 | 0.00 | 93 | 1015.8 |
| 20260509001801 | 49 | 329 | 0.0 | 0.0 | 0.00 | 0.47 | 0.00 | 92 | 1015.9 |
| 20260509001240 | 49 | 329 | 0.0 | 0.0 | 0.00 | 0.47 | 0.00 | 93 | 1015.9 |
| 20260509000736 | 49 | 329 | 0.0 | 0.0 | 0.00 | 0.47 | 0.00 | 92 | 1015.9 |
| 20260509000236 | 49 | 329 | 0.0 | 0.0 | 0.00 | 0.47 | 0.00 | 92 | 1015.8 |
| 20260508235735 | 49 | 329 | 0.0 | 0.0 | 0.00 | 0.47 | 0.00 | 92 | 1015.7 |
| 20260508235233 | 49 | 329 | 0.0 | 0.0 | 0.00 | 0.47 | 0.00 | 92 | 1015.8 |
| 20260508234818 | 49 | 329 | 0.0 | 0.0 | 0.00 | 0.47 | 0.00 | 92 | 1015.8 |
| 20260508233739 | 50 | 329 | 0.0 | 0.0 | 0.00 | 0.47 | 0.00 | 92 | 1015.6 |
| 20260508233239 | 50 | 329 | 0.0 | 0.0 | 0.00 | 0.47 | 0.00 | 92 | 1015.6 |
| 20260508232739 | 50 | 329 | 0.0 | 1.0 | 0.00 | 0.47 | 0.00 | 92 | 1015.6 |
| 20260508232238 | 50 | 329 | 0.0 | 3.0 | 0.00 | 0.47 | 0.00 | 92 | 1015.6 |
| 20260508231754 | 51 | 329 | 1.0 | 4.0 | 0.00 | 0.47 | 0.00 | 92 | 1015.6 |
| 20260508231234 | 51 | 329 | 2.0 | 4.0 | 0.00 | 0.47 | 0.00 | 92 | 1015.6 |
| 20260508230733 | 51 | 328 | 0.0 | 0.0 | 0.00 | 0.47 | 0.00 | 92 | 1015.5 |
| 20260508230232 | 51 | 342 | 0.0 | 0.0 | 0.00 | 0.47 | 0.00 | 92 | 1015.6 |
| 20260508225731 | 50 | 342 | 0.0 | 0.0 | 0.00 | 0.47 | 0.00 | 92 | 1015.7 |
| 20260508225232 | 50 | 342 | 0.0 | 0.0 | 0.00 | 0.47 | 0.00 | 92 | 1015.7 |
| 20260508224731 | 51 | 342 | 0.0 | 0.0 | 0.00 | 0.47 | 0.00 | 91 | 1015.7 |
| 20260508224230 | 51 | 342 | 0.0 | 0.0 | 0.00 | 0.47 | 0.00 | 91 | 1015.8 |
| 20260508223731 | 51 | 342 | 0.0 | 0.0 | 0.00 | 0.47 | 0.00 | 92 | 1015.8 |
| 20260508223300 | 51 | 342 | 0.0 | 0.0 | 0.00 | 0.47 | 0.00 | 92 | 1015.8 |
| 20260508222739 | 51 | 342 | 0.0 | 0.0 | 0.00 | 0.47 | 0.00 | 91 | 1015.8 |
| 20260508222232 | 51 | 326 | 0.0 | 0.0 | 0.00 | 0.47 | 0.00 | 92 | 1015.7 |
| 20260508221752 | 51 | 325 | 0.0 | 0.0 | 0.00 | 0.47 | 0.00 | 91 | 1015.7 |
| 20260508221229 | 51 | 355 | 0.0 | 0.0 | 0.00 | 0.47 | 0.00 | 91 | 1015.7 |
| 20260508220728 | 51 | 355 | 0.0 | 0.0 | 0.00 | 0.47 | 0.00 | 91 | 1015.8 |
| 20260508220257 | 51 | 355 | 0.0 | 0.0 | 0.00 | 0.47 | 0.00 | 91 | 1015.8 |
| 20260508215734 | 51 | 355 | 0.0 | 0.0 | 0.00 | 0.47 | 0.12 | 91 | 1015.7 |
| 20260508215254 | 51 | 355 | 0.0 | 0.0 | 0.00 | 0.47 | 0.12 | 91 | 1015.7 |
| 20260508214726 | 51 | 355 | 0.0 | 0.0 | 0.00 | 0.47 | 0.12 | 91 | 1015.7 |
| 20260508214226 | 51 | 355 | 0.0 | 0.0 | 0.00 | 0.47 | 0.12 | 91 | 1015.7 |
| 20260508213725 | 51 | 355 | 0.0 | 0.0 | 0.00 | 0.47 | 0.12 | 91 | 1015.6 |
| 20260508213226 | 52 | 355 | 0.0 | 0.0 | 0.00 | 0.47 | 0.12 | 90 | 1015.6 |
| 20260508212746 | 52 | 355 | 0.0 | 0.0 | 0.00 | 0.47 | 0.12 | 90 | 1015.5 |
| 20260508212227 | 52 | 355 | 0.0 | 0.0 | 0.00 | 0.47 | 0.12 | 90 | 1015.5 |
| 20260508211725 | 52 | 355 | 0.0 | 0.0 | 0.00 | 0.47 | 0.12 | 90 | 1015.6 |
| 20260508211225 | 52 | 355 | 0.0 | 0.0 | 0.00 | 0.47 | 0.12 | 90 | 1015.6 |
| 20260508210725 | 52 | 319 | 0.0 | 0.0 | 0.00 | 0.47 | 0.12 | 90 | 1015.5 |
| 20260508210247 | 52 | 319 | 0.0 | 0.0 | 0.00 | 0.47 | 0.12 | 90 | 1015.5 |
| 20260508205725 | 52 | 319 | 0.0 | 0.0 | 0.00 | 0.47 | 0.12 | 90 | 1015.5 |
| 20260508205224 | 52 | 319 | 0.0 | 0.0 | 0.00 | 0.47 | 0.12 | 90 | 1015.4 |
| 20260508204723 | 53 | 319 | 0.0 | 0.0 | 0.00 | 0.47 | 0.12 | 90 | 1015.4 |
| 20260508204224 | 53 | 319 | 0.0 | 0.0 | 0.00 | 0.47 | 0.12 | 90 | 1015.3 |
| 20260508203742 | 53 | 319 | 0.0 | 0.0 | 0.00 | 0.47 | 0.12 | 90 | 1015.3 |
| 20260508203301 | 53 | 319 | 0.0 | 0.0 | 0.00 | 0.47 | 0.12 | 90 | 1015.4 |
| 20260508202740 | 53 | 319 | 0.0 | 0.0 | 0.00 | 0.47 | 0.12 | 89 | 1015.4 |
| 20260508202310 | 53 | 319 | 0.0 | 0.0 | 0.00 | 0.47 | 0.12 | 89 | 1015.4 |
| 20260508201738 | 54 | 319 | 0.0 | 0.0 | 0.00 | 0.47 | 0.12 | 89 | 1015.4 |
| 20260508201235 | 54 | 319 | 0.0 | 0.0 | 0.00 | 0.47 | 0.12 | 89 | 1015.4 |
| 20260508200735 | 54 | 319 | 0.0 | 0.0 | 0.00 | 0.47 | 0.12 | 89 | 1015.4 |
| 20260508200231 | 54 | 319 | 0.0 | 0.0 | 0.00 | 0.47 | 0.12 | 89 | 1015.4 |
| 20260508195801 | 55 | 319 | 0.0 | 0.0 | 0.00 | 0.47 | 0.12 | 89 | 1015.3 |
| 20260508195301 | 55 | 319 | 0.0 | 0.0 | 0.00 | 0.47 | 0.12 | 89 | 1015.2 |
| 20260508194739 | 55 | 319 | 0.0 | 0.0 | 0.00 | 0.47 | 0.12 | 89 | 1015.2 |
| 20260508194240 | 55 | 319 | 0.0 | 0.0 | 0.00 | 0.47 | 0.12 | 88 | 1015.2 |
| 20260508193739 | 55 | 319 | 0.0 | 0.0 | 0.00 | 0.47 | 0.12 | 88 | 1015.1 |
| 20260508193239 | 55 | 317 | 0.0 | 0.0 | 0.00 | 0.47 | 0.12 | 88 | 1015.0 |
| 20260508192738 | 56 | 304 | 0.0 | 0.0 | 0.00 | 0.47 | 0.12 | 88 | 1014.9 |
| 20260508192239 | 56 | 303 | 0.0 | 1.0 | 0.00 | 0.47 | 0.12 | 88 | 1014.9 |
| 20260508191735 | 56 | 303 | 0.0 | 1.0 | 0.00 | 0.47 | 0.12 | 88 | 1014.8 |
| 20260508191236 | 57 | 303 | 0.0 | 0.0 | 0.00 | 0.47 | 0.12 | 87 | 1014.6 |
| 20260508190737 | 57 | 303 | 0.0 | 1.0 | 0.00 | 0.47 | 0.12 | 87 | 1014.7 |
| 20260508190236 | 57 | 303 | 0.0 | 2.0 | 0.00 | 0.47 | 0.12 | 87 | 1014.6 |
| 20260508185735 | 58 | 303 | 1.0 | 2.0 | 0.00 | 0.47 | 0.12 | 87 | 1014.5 |
| 20260508185235 | 58 | 303 | 2.0 | 2.0 | 0.00 | 0.47 | 0.12 | 87 | 1014.3 |
| 20260508184734 | 58 | 303 | 2.0 | 2.0 | 0.00 | 0.47 | 0.12 | 87 | 1014.3 |
| 20260508184234 | 59 | 303 | 1.0 | 2.0 | 0.00 | 0.47 | 0.12 | 87 | 1014.2 |
| 20260508183733 | 59 | 303 | 2.0 | 3.0 | 0.00 | 0.47 | 0.12 | 87 | 1014.1 |
| 20260508183232 | 60 | 303 | 2.0 | 3.0 | 0.00 | 0.47 | 0.12 | 87 | 1014.1 |
| 20260508182732 | 60 | 303 | 2.0 | 3.0 | 0.00 | 0.47 | 0.12 | 87 | 1014.0 |
| 20260508182248 | 60 | 301 | 2.0 | 2.0 | 0.00 | 0.47 | 0.12 | 87 | 1014.0 |
| 20260508181725 | 61 | 301 | 1.0 | 3.0 | 0.00 | 0.47 | 0.12 | 87 | 1013.8 |
| 20260508181252 | 61 | 301 | 2.0 | 3.0 | 0.00 | 0.47 | 0.12 | 86 | 1013.9 |
| 20260508180751 | 61 | 301 | 1.0 | 3.0 | 0.00 | 0.47 | 0.12 | 86 | 1013.9 |
| 20260508180245 | 61 | 301 | 2.0 | 3.0 | 0.00 | 0.47 | 0.12 | 87 | 1014.0 |
| 20260508175750 | 62 | 344 | 1.0 | 3.0 | 0.00 | 0.47 | 0.12 | 86 | 1014.0 |
| 20260508175249 | 62 | 344 | 1.0 | 3.0 | 0.00 | 0.47 | 0.12 | 86 | 1014.0 |
| 20260508174749 | 62 | 292 | 2.0 | 3.0 | 0.00 | 0.47 | 0.12 | 86 | 1014.0 |
| 20260508174229 | 62 | 325 | 2.0 | 3.0 | 0.00 | 0.47 | 0.12 | 86 | 1013.9 |
| 20260508173741 | 62 | 325 | 1.0 | 3.0 | 0.00 | 0.47 | 0.12 | 85 | 1014.0 |
| 20260508173303 | 62 | 325 | 2.0 | 3.0 | 0.00 | 0.47 | 0.12 | 85 | 1013.9 |
| 20260508172742 | 61 | 355 | 1.0 | 2.0 | 0.00 | 0.47 | 0.12 | 83 | 1014.0 |
| 20260508172242 | 61 | 360 | 1.0 | 3.0 | 0.00 | 0.47 | 0.12 | 83 | 1013.9 |
| 20260508171740 | 61 | 360 | 2.0 | 3.0 | 0.00 | 0.47 | 0.12 | 83 | 1013.9 |
| 20260508171242 | 61 | 360 | 0.0 | 2.0 | 0.00 | 0.47 | 0.12 | 83 | 1013.9 |
| 20260508170740 | 61 | 360 | 1.0 | 2.0 | 0.00 | 0.47 | 0.12 | 84 | 1013.9 |
| 20260508170302 | 62 | 5 | 0.0 | 2.0 | 0.00 | 0.47 | 0.12 | 85 | 1013.9 |
| 20260508165741 | 62 | 14 | 1.0 | 3.0 | 0.00 | 0.47 | 0.12 | 85 | 1013.9 |
| 20260508165239 | 62 | 265 | 2.0 | 3.0 | 0.00 | 0.47 | 0.12 | 86 | 1013.9 |
| 20260508164734 | 62 | 265 | 2.0 | 4.0 | 0.00 | 0.47 | 0.12 | 85 | 1013.8 |
| 20260508164234 | 62 | 304 | 2.0 | 4.0 | 0.00 | 0.47 | 0.12 | 86 | 1013.8 |
| 20260508163734 | 62 | 298 | 2.0 | 3.0 | 0.00 | 0.47 | 0.12 | 86 | 1013.8 |
| 20260508163233 | 62 | 302 | 0.0 | 1.0 | 0.04 | 0.47 | 0.12 | 85 | 1013.8 |
| 20260508162733 | 62 | 302 | 0.0 | 3.0 | 0.04 | 0.47 | 0.12 | 86 | 1013.7 |
| 20260508162252 | 62 | 302 | 2.0 | 5.0 | 0.04 | 0.47 | 0.12 | 85 | 1013.8 |
| 20260508161731 | 61 | 40 | 2.0 | 5.0 | 0.04 | 0.47 | 0.12 | 85 | 1013.8 |
| 20260508161230 | 61 | 22 | 2.0 | 3.0 | 0.04 | 0.47 | 0.12 | 85 | 1013.8 |
| 20260508160759 | 60 | 39 | 1.0 | 3.0 | 0.04 | 0.47 | 0.12 | 86 | 1013.9 |
| 20260508160239 | 60 | 39 | 0.0 | 2.0 | 0.04 | 0.47 | 0.12 | 87 | 1013.8 |
| 20260508155738 | 60 | 39 | 0.0 | 2.0 | 0.04 | 0.47 | 0.12 | 88 | 1013.9 |
| 20260508155234 | 60 | 13 | 1.0 | 3.0 | 0.08 | 0.47 | 0.12 | 88 | 1013.9 |
| 20260508154733 | 60 | 9 | 1.0 | 5.0 | 0.20 | 0.47 | 0.12 | 88 | 1014.0 |
| 20260508154232 | 60 | 302 | 2.0 | 5.0 | 0.20 | 0.47 | 0.12 | 88 | 1014.0 |
| 20260508153729 | 60 | 295 | 4.0 | 5.0 | 0.20 | 0.47 | 0.12 | 88 | 1014.1 |
| 20260508153229 | 59 | 296 | 1.0 | 4.0 | 0.16 | 0.43 | 0.11 | 88 | 1014.1 |
| 20260508152731 | 59 | 290 | 2.0 | 4.0 | 0.16 | 0.43 | 0.11 | 88 | 1014.2 |
| 20260508152231 | 59 | 308 | 2.0 | 4.0 | 0.16 | 0.43 | 0.11 | 87 | 1014.3 |
| 20260508151752 | 58 | 38 | 2.0 | 4.0 | 0.16 | 0.43 | 0.11 | 87 | 1014.3 |
| 20260508151250 | 58 | 36 | 2.0 | 5.0 | 0.20 | 0.43 | 0.11 | 86 | 1014.4 |
| 20260508150730 | 58 | 60 | 4.0 | 6.0 | 0.20 | 0.43 | 0.11 | 86 | 1014.4 |
| 20260508150229 | 58 | 45 | 3.0 | 8.0 | 0.24 | 0.43 | 0.11 | 86 | 1014.4 |
| 20260508145724 | 58 | 47 | 4.0 | 8.0 | 0.28 | 0.43 | 0.11 | 85 | 1014.3 |
| 20260508145224 | 58 | 61 | 1.0 | 5.0 | 0.28 | 0.35 | 0.09 | 85 | 1014.2 |
| 20260508144751 | 58 | 29 | 3.0 | 5.0 | 0.24 | 0.28 | 0.07 | 85 | 1014.2 |
| 20260508144232 | 58 | 292 | 1.0 | 7.0 | 0.24 | 0.28 | 0.07 | 85 | 1014.4 |
| 20260508143753 | 58 | 281 | 3.0 | 9.0 | 0.24 | 0.28 | 0.07 | 85 | 1014.3 |
| 20260508143233 | 58 | 250 | 4.0 | 7.0 | 0.24 | 0.28 | 0.07 | 85 | 1014.4 |
| 20260508142734 | 58 | 289 | 2.0 | 5.0 | 0.28 | 0.28 | 0.07 | 86 | 1014.5 |
| 20260508142234 | 58 | 259 | 3.0 | 8.0 | 0.28 | 0.28 | 0.07 | 85 | 1014.5 |
| 20260508141735 | 58 | 294 | 3.0 | 9.0 | 0.28 | 0.28 | 0.07 | 85 | 1014.6 |
| 20260508141235 | 59 | 270 | 3.0 | 9.0 | 0.24 | 0.24 | 0.06 | 84 | 1014.6 |
| 20260508140752 | 59 | 261 | 4.0 | 12.0 | 0.24 | 0.24 | 0.06 | 82 | 1014.6 |
| 20260508140232 | 60 | 280 | 7.0 | 13.0 | 0.20 | 0.20 | 0.05 | 81 | 1014.7 |
| 20260508135730 | 61 | 242 | 7.0 | 13.0 | 0.16 | 0.16 | 0.04 | 80 | 1014.7 |
| 20260508135259 | 63 | 239 | 4.0 | 12.0 | 0.08 | 0.08 | 0.02 | 78 | 1014.7 |
| 20260508134758 | 64 | 342 | 4.0 | 12.0 | 0.04 | 0.04 | 0.01 | 76 | 1014.4 |
| 20260508134237 | 65 | 343 | 5.0 | 8.0 | 0.04 | 0.04 | 0.01 | 76 | 1014.2 |
| 20260508133736 | 65 | 327 | 2.0 | 5.0 | 0.04 | 0.04 | 0.01 | 73 | 1014.2 |
| 20260508133235 | 66 | 209 | 2.0 | 6.0 | 0.04 | 0.04 | 0.01 | 70 | 1014.2 |
| 20260508132734 | 66 | 236 | 3.0 | 8.0 | 0.00 | 0.00 | 0.00 | 70 | 1014.2 |
| 20260508132235 | 66 | 224 | 1.0 | 8.0 | 0.00 | 0.00 | 0.00 | 67 | 1014.3 |
| 20260508131730 | 67 | 244 | 4.0 | 8.0 | 0.00 | 0.00 | 0.00 | 66 | 1014.2 |
| 20260508131230 | 67 | 210 | 5.0 | 8.0 | 0.00 | 0.00 | 0.00 | 65 | 1014.3 |
| 20260508130749 | 67 | 206 | 3.0 | 6.0 | 0.00 | 0.00 | 0.00 | 65 | 1014.4 |
| 20260508130258 | 67 | 203 | 2.0 | 4.0 | 0.00 | 0.00 | 0.00 | 64 | 1014.3 |
| 20260508125735 | 67 | 211 | 2.0 | 8.0 | 0.00 | 0.00 | 0.00 | 64 | 1014.3 |
| 20260508125235 | 67 | 129 | 4.0 | 9.0 | 0.00 | 0.00 | 0.00 | 64 | 1014.3 |
| 20260508124734 | 67 | 111 | 2.0 | 9.0 | 0.00 | 0.00 | 0.00 | 63 | 1014.3 |
| 20260508124234 | 68 | 141 | 4.0 | 9.0 | 0.00 | 0.00 | 0.00 | 63 | 1014.3 |
| 20260508123754 | 68 | 112 | 1.0 | 5.0 | 0.00 | 0.00 | 0.00 | 62 | 1014.3 |
| 20260508123239 | 68 | 206 | 3.0 | 5.0 | 0.00 | 0.00 | 0.00 | 63 | 1014.3 |
| 20260508122758 | 68 | 266 | 3.0 | 5.0 | 0.00 | 0.00 | 0.00 | 62 | 1014.4 |
| 20260508122236 | 68 | 194 | 2.0 | 9.0 | 0.00 | 0.00 | 0.00 | 61 | 1014.4 |
| 20260508121735 | 68 | 134 | 5.0 | 9.0 | 0.00 | 0.00 | 0.00 | 63 | 1014.4 |
| 20260508121235 | 68 | 109 | 3.0 | 7.0 | 0.00 | 0.00 | 0.00 | 64 | 1014.6 |
| 20260508120735 | 68 | 151 | 2.0 | 9.0 | 0.00 | 0.00 | 0.00 | 66 | 1014.5 |
| 20260508120234 | 68 | 153 | 5.0 | 9.0 | 0.00 | 0.00 | 0.00 | 65 | 1014.5 |
| 20260508115733 | 67 | 124 | 2.0 | 9.0 | 0.00 | 0.00 | 0.00 | 65 | 1014.6 |
| 20260508115233 | 67 | 127 | 3.0 | 9.0 | 0.00 | 0.00 | 0.00 | 66 | 1014.6 |
| 20260508114732 | 67 | 182 | 4.0 | 7.0 | 0.00 | 0.00 | 0.00 | 63 | 1014.7 |
| 20260508114232 | 67 | 184 | 3.0 | 9.0 | 0.00 | 0.00 | 0.00 | 62 | 1014.7 |
| 20260508113730 | 67 | 142 | 5.0 | 9.0 | 0.00 | 0.00 | 0.00 | 64 | 1014.6 |
| 20260508113230 | 67 | 166 | 2.0 | 9.0 | 0.00 | 0.00 | 0.00 | 65 | 1014.7 |
| 20260508112750 | 67 | 130 | 5.0 | 9.0 | 0.00 | 0.00 | 0.00 | 65 | 1014.7 |
| 20260508112250 | 68 | 126 | 5.0 | 8.0 | 0.00 | 0.00 | 0.00 | 64 | 1014.8 |
| 20260508111757 | 68 | 221 | 2.0 | 8.0 | 0.00 | 0.00 | 0.00 | 63 | 1014.8 |
| 20260508111235 | 68 | 231 | 5.0 | 11.0 | 0.00 | 0.00 | 0.00 | 62 | 1014.8 |
| 20260508110756 | 68 | 98 | 6.0 | 11.0 | 0.00 | 0.00 | 0.00 | 64 | 1014.8 |
| 20260508110236 | 69 | 205 | 6.0 | 11.0 | 0.00 | 0.00 | 0.00 | 65 | 1014.9 |
| 20260508105733 | 68 | 170 | 3.0 | 9.0 | 0.00 | 0.00 | 0.00 | 64 | 1014.8 |
| 20260508105230 | 68 | 105 | 4.0 | 6.0 | 0.00 | 0.00 | 0.00 | 66 | 1014.9 |
| 20260508104747 | 67 | 121 | 3.0 | 7.0 | 0.00 | 0.00 | 0.00 | 65 | 1014.9 |
| 20260508104235 | 67 | 125 | 2.0 | 9.0 | 0.00 | 0.00 | 0.00 | 66 | 1015.0 |
| 20260508103735 | 68 | 171 | 6.0 | 9.0 | 0.00 | 0.00 | 0.00 | 69 | 1015.2 |
| 20260508103234 | 67 | 203 | 2.0 | 9.0 | 0.00 | 0.00 | 0.00 | 66 | 1015.2 |
| 20260508102734 | 67 | 164 | 2.0 | 10.0 | 0.00 | 0.00 | 0.00 | 66 | 1015.2 |
| 20260508102233 | 67 | 194 | 4.0 | 9.0 | 0.00 | 0.00 | 0.00 | 66 | 1015.1 |
| 20260508101734 | 66 | 132 | 1.0 | 8.0 | 0.00 | 0.00 | 0.00 | 67 | 1015.3 |
| 20260508101233 | 66 | 163 | 4.0 | 8.0 | 0.00 | 0.00 | 0.00 | 67 | 1015.2 |
| 20260508100725 | 67 | 136 | 3.0 | 7.0 | 0.00 | 0.00 | 0.00 | 67 | 1015.4 |
| 20260508100240 | 66 | 246 | 4.0 | 8.0 | 0.00 | 0.00 | 0.00 | 70 | 1015.2 |
| 20260508095739 | 66 | 41 | 2.0 | 9.0 | 0.00 | 0.00 | 0.00 | 66 | 1015.2 |
| 20260508095311 | 66 | 99 | 3.0 | 9.0 | 0.00 | 0.00 | 0.00 | 68 | 1015.2 |
| 20260508094810 | 66 | 211 | 4.0 | 7.0 | 0.00 | 0.00 | 0.00 | 70 | 1015.3 |
| 20260508094245 | 65 | 164 | 1.0 | 4.0 | 0.00 | 0.00 | 0.00 | 70 | 1015.3 |
| 20260508093745 | 65 | 18 | 3.0 | 7.0 | 0.00 | 0.00 | 0.00 | 68 | 1015.2 |
| 20260508093242 | 66 | 145 | 4.0 | 7.0 | 0.00 | 0.00 | 0.00 | 69 | 1015.3 |
| 20260508092741 | 65 | 173 | 3.0 | 7.0 | 0.00 | 0.00 | 0.00 | 72 | 1015.3 |
| 20260508092240 | 64 | 225 | 3.0 | 8.0 | 0.00 | 0.00 | 0.00 | 69 | 1015.2 |
| 20260508091735 | 64 | 74 | 3.0 | 8.0 | 0.00 | 0.00 | 0.00 | 68 | 1015.2 |
| 20260508091256 | 64 | 105 | 4.0 | 8.0 | 0.00 | 0.00 | 0.00 | 72 | 1015.2 |
| 20260508090736 | 64 | 150 | 2.0 | 7.0 | 0.00 | 0.00 | 0.00 | 70 | 1015.3 |
| 20260508090236 | 64 | 107 | 1.0 | 10.0 | 0.00 | 0.00 | 0.00 | 71 | 1015.3 |
| 20260508085734 | 64 | 77 | 4.0 | 10.0 | 0.00 | 0.00 | 0.00 | 72 | 1015.2 |
| 20260508085236 | 63 | 137 | 3.0 | 8.0 | 0.00 | 0.00 | 0.00 | 72 | 1015.2 |
| 20260508084806 | 63 | 130 | 5.0 | 9.0 | 0.00 | 0.00 | 0.00 | 72 | 1015.3 |
| 20260508084247 | 63 | 108 | 5.0 | 11.0 | 0.00 | 0.00 | 0.00 | 71 | 1015.3 |
| 20260508083746 | 63 | 129 | 4.0 | 9.0 | 0.00 | 0.00 | 0.00 | 71 | 1015.3 |
| 20260508083245 | 63 | 194 | 4.0 | 9.0 | 0.00 | 0.00 | 0.00 | 69 | 1015.2 |
| 20260508082740 | 63 | 144 | 3.0 | 10.0 | 0.00 | 0.00 | 0.00 | 70 | 1015.2 |
| 20260508082241 | 63 | 128 | 6.0 | 10.0 | 0.00 | 0.00 | 0.00 | 70 | 1015.2 |
| 20260508081740 | 63 | 132 | 7.0 | 10.0 | 0.00 | 0.00 | 0.00 | 69 | 1015.2 |
| 20260508081239 | 63 | 134 | 1.0 | 8.0 | 0.00 | 0.00 | 0.00 | 70 | 1015.2 |
| 20260508080759 | 63 | 139 | 3.0 | 8.0 | 0.00 | 0.00 | 0.00 | 71 | 1015.1 |
| 20260508080237 | 63 | 168 | 5.0 | 8.0 | 0.00 | 0.00 | 0.00 | 71 | 1015.0 |
| 20260508075804 | 63 | 135 | 3.0 | 8.0 | 0.00 | 0.00 | 0.00 | 72 | 1015.1 |
| 20260508075241 | 62 | 205 | 1.0 | 4.0 | 0.00 | 0.00 | 0.00 | 72 | 1015.1 |
| 20260508074740 | 62 | 122 | 3.0 | 4.0 | 0.00 | 0.00 | 0.00 | 71 | 1015.0 |
| 20260508074239 | 62 | 210 | 1.0 | 3.0 | 0.00 | 0.00 | 0.00 | 70 | 1014.9 |
| 20260508073737 | 62 | 140 | 1.0 | 3.0 | 0.00 | 0.00 | 0.00 | 72 | 1014.9 |
| 20260508073236 | 62 | 12 | 0.0 | 4.0 | 0.00 | 0.00 | 0.00 | 71 | 1014.9 |
| 20260508072751 | 62 | 24 | 3.0 | 4.0 | 0.00 | 0.00 | 0.00 | 73 | 1014.8 |
| 20260508072251 | 62 | 350 | 1.0 | 4.0 | 0.00 | 0.00 | 0.00 | 72 | 1014.7 |
| 20260508071749 | 62 | 338 | 1.0 | 5.0 | 0.00 | 0.00 | 0.00 | 75 | 1014.8 |
| 20260508071229 | 61 | 14 | 3.0 | 5.0 | 0.00 | 0.00 | 0.00 | 75 | 1014.8 |
| 20260508070729 | 60 | 345 | 2.0 | 4.0 | 0.00 | 0.00 | 0.00 | 76 | 1014.8 |
| 20260508070229 | 60 | 355 | 1.0 | 3.0 | 0.00 | 0.00 | 0.00 | 78 | 1014.7 |
| 20260508065729 | 59 | 355 | 2.0 | 3.0 | 0.00 | 0.00 | 0.00 | 80 | 1014.6 |
| 20260508065228 | 59 | 355 | 1.0 | 3.0 | 0.00 | 0.00 | 0.00 | 82 | 1014.6 |
| 20260508064725 | 58 | 355 | 0.0 | 2.0 | 0.00 | 0.00 | 0.00 | 84 | 1014.6 |
| 20260508064239 | 57 | 355 | 1.0 | 2.0 | 0.00 | 0.00 | 0.00 | 85 | 1014.5 |
| 20260508063738 | 57 | 355 | 0.0 | 2.0 | 0.00 | 0.00 | 0.00 | 86 | 1014.5 |
| 20260508063235 | 56 | 355 | 1.0 | 3.0 | 0.00 | 0.00 | 0.00 | 87 | 1014.5 |
| 20260508062734 | 56 | 355 | 0.0 | 3.0 | 0.00 | 0.00 | 0.00 | 87 | 1014.4 |
| 20260508062235 | 56 | 355 | 0.0 | 3.0 | 0.00 | 0.00 | 0.00 | 88 | 1014.4 |
| 20260508061729 | 56 | 355 | 1.0 | 4.0 | 0.00 | 0.00 | 0.00 | 88 | 1014.3 |
| 20260508061250 | 56 | 355 | 2.0 | 4.0 | 0.00 | 0.00 | 0.00 | 89 | 1014.3 |
| 20260508060746 | 55 | 343 | 1.0 | 4.0 | 0.00 | 0.00 | 0.00 | 90 | 1014.3 |
| 20260508060243 | 55 | 327 | 2.0 | 4.0 | 0.00 | 0.00 | 0.00 | 90 | 1014.3 |
| 20260508055742 | 55 | 338 | 3.0 | 4.0 | 0.00 | 0.00 | 0.00 | 91 | 1014.2 |
| 20260508055255 | 55 | 355 | 2.0 | 4.0 | 0.00 | 0.00 | 0.00 | 92 | 1014.2 |
| 20260508054734 | 55 | 329 | 3.0 | 4.0 | 0.00 | 0.00 | 0.00 | 93 | 1014.1 |
| 20260508054235 | 55 | 11 | 3.0 | 4.0 | 0.00 | 0.00 | 0.00 | 93 | 1014.2 |
| 20260508053752 | 54 | 27 | 1.0 | 3.0 | 0.00 | 0.00 | 0.00 | 94 | 1014.1 |
| 20260508053231 | 54 | 27 | 1.0 | 5.0 | 0.00 | 0.00 | 0.00 | 94 | 1014.0 |
| 20260508052727 | 54 | 27 | 2.0 | 6.0 | 0.00 | 0.00 | 0.00 | 94 | 1014.0 |
| 20260508052225 | 53 | 15 | 4.0 | 7.0 | 0.00 | 0.00 | 0.00 | 94 | 1014.0 |
| 20260508051755 | 53 | 344 | 2.0 | 5.0 | 0.00 | 0.00 | 0.00 | 94 | 1013.9 |
| 20260508051231 | 52 | 14 | 3.0 | 5.0 | 0.00 | 0.00 | 0.00 | 94 | 1013.8 |
| 20260508050729 | 51 | 9 | 2.0 | 6.0 | 0.00 | 0.00 | 0.00 | 94 | 1013.8 |
| 20260508050225 | 50 | 330 | 3.0 | 6.0 | 0.00 | 0.00 | 0.00 | 94 | 1013.8 |
| 20260508045724 | 49 | 332 | 2.0 | 4.0 | 0.00 | 0.00 | 0.00 | 94 | 1013.8 |
| 20260508045242 | 48 | 328 | 2.0 | 3.0 | 0.00 | 0.00 | 0.00 | 93 | 1013.6 |
| 20260508044813 | 48 | 327 | 1.0 | 2.0 | 0.00 | 0.00 | 0.00 | 92 | 1013.7 |
| 20260508044233 | 48 | 327 | 0.0 | 1.0 | 0.00 | 0.00 | 0.00 | 92 | 1013.7 |
| 20260508043733 | 48 | 327 | 0.0 | 1.0 | 0.00 | 0.00 | 0.00 | 92 | 1013.7 |
| 20260508043233 | 48 | 327 | 0.0 | 2.0 | 0.00 | 0.00 | 0.00 | 92 | 1013.7 |
| 20260508042732 | 48 | 327 | 0.0 | 3.0 | 0.00 | 0.00 | 0.00 | 92 | 1013.6 |
| 20260508042251 | 48 | 327 | 2.0 | 4.0 | 0.00 | 0.00 | 0.00 | 93 | 1013.5 |
| 20260508041731 | 48 | 327 | 2.0 | 4.0 | 0.00 | 0.00 | 0.00 | 93 | 1013.5 |
| 20260508041247 | 48 | 326 | 2.0 | 4.0 | 0.00 | 0.00 | 0.00 | 92 | 1013.5 |
| 20260508040725 | 48 | 326 | 1.0 | 2.0 | 0.00 | 0.00 | 0.00 | 92 | 1013.4 |
| 20260508040224 | 48 | 326 | 1.0 | 3.0 | 0.00 | 0.00 | 0.00 | 92 | 1013.4 |
| 20260508035723 | 48 | 326 | 1.0 | 4.0 | 0.00 | 0.00 | 0.00 | 92 | 1013.4 |
| 20260508035252 | 47 | 326 | 2.0 | 4.0 | 0.00 | 0.00 | 0.00 | 92 | 1013.5 |
| 20260508034732 | 47 | 312 | 1.0 | 2.0 | 0.00 | 0.00 | 0.00 | 92 | 1013.4 |
| 20260508034250 | 47 | 312 | 0.0 | 0.0 | 0.00 | 0.00 | 0.00 | 92 | 1013.5 |
| 20260508033750 | 48 | 312 | 0.0 | 2.0 | 0.00 | 0.00 | 0.00 | 92 | 1013.5 |
| 20260508033249 | 47 | 312 | 0.0 | 2.0 | 0.00 | 0.00 | 0.00 | 92 | 1013.5 |
| 20260508032743 | 47 | 312 | 0.0 | 2.0 | 0.00 | 0.00 | 0.00 | 92 | 1013.5 |
| 20260508032242 | 47 | 312 | 0.0 | 2.0 | 0.00 | 0.00 | 0.00 | 92 | 1013.5 |
| 20260508031739 | 47 | 312 | 0.0 | 1.0 | 0.00 | 0.00 | 0.00 | 92 | 1013.4 |
| 20260508031238 | 48 | 312 | 0.0 | 2.0 | 0.00 | 0.00 | 0.00 | 92 | 1013.4 |
| 20260508030734 | 48 | 312 | 1.0 | 2.0 | 0.00 | 0.00 | 0.00 | 92 | 1013.4 |
| 20260508030233 | 48 | 312 | 1.0 | 2.0 | 0.00 | 0.00 | 0.00 | 92 | 1013.4 |
| 20260508025729 | 48 | 312 | 1.0 | 2.0 | 0.00 | 0.00 | 0.00 | 92 | 1013.3 |
| 20260508025230 | 48 | 312 | 1.0 | 3.0 | 0.00 | 0.00 | 0.00 | 92 | 1013.3 |
| 20260508024725 | 48 | 312 | 1.0 | 3.0 | 0.00 | 0.00 | 0.00 | 92 | 1013.3 |
| 20260508024226 | 48 | 311 | 0.0 | 2.0 | 0.00 | 0.00 | 0.00 | 92 | 1013.2 |
| 20260508023727 | 48 | 311 | 0.0 | 3.0 | 0.00 | 0.00 | 0.00 | 92 | 1013.3 |
| 20260508023247 | 47 | 311 | 3.0 | 3.0 | 0.00 | 0.00 | 0.00 | 91 | 1013.2 |
| 20260508022724 | 48 | 338 | 0.0 | 0.0 | 0.00 | 0.00 | 0.00 | 91 | 1013.3 |
| 20260508022248 | 48 | 338 | 0.0 | 0.0 | 0.00 | 0.00 | 0.00 | 91 | 1013.1 |
| 20260508021740 | 48 | 338 | 0.0 | 0.0 | 0.00 | 0.00 | 0.00 | 91 | 1013.1 |
| 20260508021250 | 48 | 338 | 0.0 | 0.0 | 0.00 | 0.00 | 0.00 | 91 | 1013.2 |
| 20260508020748 | 48 | 338 | 0.0 | 0.0 | 0.00 | 0.00 | 0.00 | 91 | 1013.2 |
| 20260508020238 | 48 | 338 | 0.0 | 0.0 | 0.00 | 0.00 | 0.00 | 91 | 1013.2 |
| 20260508015737 | 48 | 338 | 0.0 | 2.0 | 0.00 | 0.00 | 0.00 | 91 | 1013.3 |
| 20260508015237 | 48 | 338 | 0.0 | 3.0 | 0.00 | 0.00 | 0.00 | 91 | 1013.2 |
| 20260508014746 | 48 | 338 | 2.0 | 3.0 | 0.00 | 0.00 | 0.00 | 91 | 1013.2 |
| 20260508014228 | 48 | 338 | 1.0 | 2.0 | 0.00 | 0.00 | 0.00 | 91 | 1013.2 |
| 20260508013727 | 48 | 338 | 1.0 | 3.0 | 0.00 | 0.00 | 0.00 | 91 | 1013.2 |
| 20260508013246 | 48 | 338 | 1.0 | 3.0 | 0.00 | 0.00 | 0.00 | 91 | 1013.1 |
| 20260508012801 | 48 | 340 | 2.0 | 3.0 | 0.00 | 0.00 | 0.00 | 91 | 1013.1 |
| 20260508012308 | 48 | 340 | 1.0 | 2.0 | 0.00 | 0.00 | 0.00 | 91 | 1013.1 |
| 20260508011729 | 49 | 340 | 0.0 | 2.0 | 0.00 | 0.00 | 0.00 | 91 | 1013.1 |